[TLELIST] Archives

 

[list_settings.list_name] Current TLEs

May 20th 2012 PDT

HST 1 20580U 90037B 12140.96042586 .00001744 00000-0 11581-3 0 33 2 20580 028.4715 328.2630 0003473 117.6101 242.4841 15.02479348 10483 ISS (ZARYA) 1 25544U 98067A 12141.46975426 .00013407 00000-0 19351-3 0 5917 2 25544 051.6400 260.9989 0010957 339.5702 139.0390 15.56248912773692 CXO 1 25867U 99040B 12142.49207898 -.00000721 +00000-0 +00000-0 0 00012 2 25867 072.2731 006.7220 8752322 278.1299 359.5496 00.37797806014571 ____________________________________________________________________ These 2-Line ...Continue Reading

[list_settings.list_name] Current TLEs

May 19th 2012 PDT

HST 1 20580U 90037B 12138.17053356 .00001743 00000-0 11581-3 0 28 2 20580 028.4715 346.5126 0003476 087.8872 272.2114 15.02470528 10061 ISS (ZARYA) 1 25544U 98067A 12140.36411019 .00011953 00000-0 17356-3 0 5836 2 25544 051.6398 266.5285 0010782 334.7780 065.3938 15.56212037773528 CXO 1 25867U 99040B 12142.49153375 -.00000721 00000-0 00000+0 0 7434 2 25867 072.2728 006.7220 8752305 278.1298 359.4772 00.37797959 9059 ____________________________________________________________________ These 2-Line ...Continue Reading

[list_settings.list_name] Current TLEs

May 18th 2012 PDT

HST 1 20580U 90037B 12138.17053356 .00001743 00000-0 11581-3 0 28 2 20580 028.4715 346.5126 0003476 087.8872 272.2114 15.02470528 10061 ISS (ZARYA) 1 25544U 98067A 12139.40668674 .00011774 00000-0 17122-3 0 5753 2 25544 051.6398 271.3208 0010900 332.3164 100.4904 15.56185778773377 CXO 1 25867U 99040B 12139.84872688 -.00000765 00000-0 00000+0 0 7421 2 25867 072.2589 006.8893 8752766 278.1485 359.6598 00.37813046 9043 ____________________________________________________________________ These 2-Line ...Continue Reading

[list_settings.list_name] Current TLEs

May 17th 2012 PDT

HST 1 20580U 90037B 12138.17053356 .00001743 00000-0 11581-3 0 28 2 20580 028.4715 346.5126 0003476 087.8872 272.2114 15.02470528 10061 ISS (ZARYA) 1 25544U 98067A 12138.44409946 .00011771 00000-0 17162-3 0 5695 2 25544 051.6394 276.1279 0010508 326.8309 109.7653 15.56121153773221 CXO 1 25867U 99040B 12139.84872688 -.00000765 00000-0 00000+0 0 7421 2 25867 072.2589 006.8893 8752766 278.1485 359.6598 00.37813046 9043 ____________________________________________________________________ These 2-Line ...Continue Reading

[list_settings.list_name] Current TLEs

May 16th 2012 PDT

HST 1 20580U 90037B 12137.17414033 .00001860 00000-0 12441-3 0 15 2 20580 028.4717 353.0341 0003418 075.9708 284.1312 15.02467850 9915 ISS (ZARYA) 1 25544U 98067A 12137.22090924 .00011335 00000-0 16545-3 0 5636 2 25544 051.6406 282.2467 0010515 321.4531 098.1082 15.56132344773038 CXO 1 25867U 99040B 12139.84872688 -.00000765 00000-0 00000+0 0 7421 2 25867 072.2589 006.8893 8752766 278.1485 359.6598 00.37813046 9043 ____________________________________________________________________ These 2-Line ...Continue Reading

[list_settings.list_name] Current TLEs

May 15th 2012 PDT

HST 1 20580U 90037B 12135.18134429 .00001827 00000-0 12202-3 0 09 2 20580 028.4717 006.0767 0003217 054.5337 305.5552 15.02460951 9616 ISS (ZARYA) 1 25544U 98067A 12135.56154573 .00010795 00000-0 15817-3 0 5531 2 25544 051.6405 290.5443 0010436 315.0173 162.6015 15.56091359772779 CXO 1 25867U 99040B 12137.20352330 -.00000662 00000-0 00000+0 0 7400 2 25867 072.2386 007.0705 8755423 278.1518 359.5740 00.37822214 9037 ____________________________________________________________________ These 2-Line ...Continue Reading

[list_settings.list_name] Current TLEs

May 14th 2012 PDT

HST 1 20580U 90037B 12135.18134429 .00001827 00000-0 12202-3 0 09 2 20580 028.4717 006.0767 0003217 054.5337 305.5552 15.02460951 9616 ISS (ZARYA) 1 25544U 98067A 12135.36273282 .00010787 00000-0 15807-3 0 5505 2 25544 051.6412 291.5377 0010465 314.6211 128.5214 15.56086665772747 CXO 1 25867U 99040B 12137.20352330 -.00000662 00000-0 00000+0 0 7400 2 25867 072.2386 007.0705 8755423 278.1518 359.5740 00.37822214 9037 ____________________________________________________________________ These 2-Line ...Continue Reading

[list_settings.list_name] Current TLEs

May 13th 2012 PDT

HST 1 20580U 90037B 12133.98566257 .00001827 00000-0 12202-3 0 9990 2 20580 028.4717 013.8979 0003218 041.7983 318.2878 15.02456970 9431 ISS (ZARYA) 1 25544U 98067A 12134.39996525 .00011406 00000-0 16685-3 0 5446 2 25544 051.6413 296.3512 0010500 311.0384 135.2285 15.56067533772593 CXO 1 25867U 99040B 12134.55719443 -.00000451 00000-0 00000+0 0 7391 2 25867 072.2143 007.2755 8757418 278.1335 359.4043 00.37817244 9029 ____________________________________________________________________ These 2-Line ...Continue Reading

[list_settings.list_name] Current TLEs

May 12th 2012 PDT

HST 1 20580U 90037B 12132.12570619 .00001710 00000-0 11345-3 0 9989 2 20580 028.4717 026.0658 0003151 024.2186 335.8593 15.02450680 9158 ISS (ZARYA) 1 25544U 98067A 12133.37063153 .00011045 00000-0 16196-3 0 5395 2 25544 051.6424 301.4978 0010360 306.4604 129.8564 15.56041914772433 CXO 1 25867U 99040B 12131.91196575 -.00000363 00000-0 00000+0 0 7384 2 25867 072.1940 007.4576 8758106 278.1172 359.4069 00.37804940 9016 ____________________________________________________________________ These 2-Line ...Continue Reading

[list_settings.list_name] Current TLEs

May 11th 2012 PDT

HST 1 20580U 90037B 12132.12570619 .00001710 00000-0 11345-3 0 9989 2 20580 028.4717 026.0658 0003151 024.2186 335.8593 15.02450680 9158 ISS (ZARYA) 1 25544U 98067A 12132.47587387 .00010209 00000-0 15037-3 0 5322 2 25544 051.6426 305.9713 0010332 303.2045 157.5998 15.56018013772291 CXO 1 25867U 99040B 12134.55727281 -.00000451 00000-0 00000+0 0 7378 2 25867 072.2142 007.2754 8757434 278.1336 359.4153 00.37816801 9026 ____________________________________________________________________ These 2-Line ...Continue Reading
  • This mailing list is a public mailing list - anyone may join or leave, at any time.
  • This mailing list is announce-only.

International Space Station (ISS) / Hubble Space Telescope (HST) / Chandra X-Ray Observatory Orbital Data via EMAIL

Privacy Policy:

Private list